Regional Weather Roundup
Issued by NWS Little Rock, AR

Home | Current Version | Previous Version | Graphics & Text | Print | Product List | Glossary On
Versions: 1 2 3 4 5 6 7 8 9 10 11 12 13 14 15 16 17 18 19 20 21 22 23 24 25 26 27 28 29 30 31 32 33 34 35 36 37 38 39 40 41 42 43 44 45 46 47 48 49 50
000
ASUS44 KLZK 281005
RWRLZK

WEATHER ROUNDUP FOR ARKANSAS
NATIONAL WEATHER SERVICE LITTLE ROCK AR
500 AM CDT THU APR 28 2016

NOTE: "FAIR" INDICATES FEW OR NO CLOUDS BELOW 12,000 FEET WITH NO
SIGNIFICANT WEATHER AND/OR OBSTRUCTIONS TO VISIBILITY.

ARZ001-003-010-029-281100-
NORTHWEST ARKANSAS

CITY           SKY/WX    TMP DP  RH WIND       PRES   REMARKS
FAYETTEVILLE   CLEAR     47  47 100 CALM      29.88R
FORT SMITH     CLEAR     59  49  69 N5        29.85R
HARRISON       CLEAR     52  47  83 W6        29.85R
BENTONVILLE    CLEAR    N/A N/A N/A CALM      29.88R
ROGERS         CLEAR     51  46  83 W5        29.88R
SILOAM SPGS    CLEAR     48  39  71 CALM      29.89R
HIGHFILL       CLEAR     53  44  71 NW7       29.88R
$$

ARZ004-005-016-281100-
NORTH CENTRAL ARKANSAS

CITY           SKY/WX    TMP DP  RH WIND       PRES   REMARKS
BATESVILLE     CLEAR     55  52  88 CALM      29.83R
FLIPPIN        CLEAR    N/A N/A N/A CALM      29.81R
MTN HOME       CLEAR     53  50  89 CALM      29.82R
$$

ARZ040-041-281100-
WEST CENTRAL ARKANSAS

CITY           SKY/WX    TMP DP  RH WIND       PRES   REMARKS
MENA           CLEAR     52  50  93 CALM      29.85R
MOUNT IDA      CLEAR     53  50  89 CALM      29.82R
$$

ARZ009-017-025-026-028-281100-
NORTHEAST ARKANSAS

CITY           SKY/WX    TMP DP  RH WIND       PRES   REMARKS
CORNING          N/A     61  55  82 CALM      29.81R
JONESBORO      CLEAR     64  55  72 CALM      29.81R
NEWPORT        CLEAR     61  56  83 NE3       29.83R
WALNUT RIDGE   CLEAR     61  52  72 CALM      29.81R
BLYTHEVILLE    PTCLDY    66  62  87 NW9       29.80R
$$

ARZ022-023-033-042-044-281100-
CENTRAL ARKANSAS

CITY           SKY/WX    TMP DP  RH WIND       PRES   REMARKS
LITTLE ROCK    CLEAR     63  54  72 N5        29.83R
N LITTLE ROCK    N/A     61  55  80 N5        29.81R
JACKSONVILLE   CLEAR     57  55  92 CALM      29.82R
SEARCY         CLEAR     56  56 100 CALM      29.84R
HOT SPRINGS    CLEAR     56  54  93 CALM      29.84R
RUSSELLVILLE   CLEAR     54  53  97 CALM      29.83R
$$

ARZ036-281100-
EAST ARKANSAS

CITY           SKY/WX    TMP DP  RH WIND       PRES   REMARKS
WEST MEMPHIS   CLEAR     65  64  97 CALM      29.80R
$$

ARZ050-053-066-070-073-281100-
SOUTHWEST ARKANSAS

CITY           SKY/WX    TMP DP  RH WIND       PRES   REMARKS
ARKADELPHIA    FAIR      55  55 100 CALM      29.84R FOG
CAMDEN         PTCLDY    55  54  94 CALM      29.83R FOG
TEXARKANA      PTCLDY    56  54  93 CALM      29.83R
EL DORADO      PTCLDY    57  56  96 CALM      29.83R
DE QUEEN       FOG       51  51 100 CALM      29.82R VSB 1/2
$$

ARZ056-057-069-281100-
SOUTHEAST ARKANSAS

CITY           SKY/WX    TMP DP  RH WIND       PRES   REMARKS
PINE BLUFF     CLEAR     58  56  93 CALM      29.83R
STUTTGART      CLEAR     63  54  72 NW9       29.83R
MONTICELLO     CLEAR     64  62  93 W3        29.83R

$$





USA.gov is the U.S. government's official web portal to all federal, state and local government web resources and services.